Tiempo cada hora Munger

Hoy, 22 Octubre, Jueves

Tiempo Temperatura Precipitaciones Viento Presión Humedad
00:00 +27°C° 0 mm 2 mps 751 mmHg 63%
01:00 +27°C° 0 mm 2 mps 750 mmHg 66%
02:00 +27°C° 0 mm 1 mps 750 mmHg 70%
03:00 +26°C° 0 mm 1 mps 749 mmHg 73%
04:00 +26°C° 0 mm 1 mps 749 mmHg 76%
05:00 +26°C° 0 mm 1 mps 749 mmHg 78%
06:00 +25°C° 0 mm 1 mps 750 mmHg 87%
07:00 +27°C° 0 mm 2 mps 750 mmHg 82%
08:00 +29°C° 0 mm 2 mps 750 mmHg 77%
09:00 +30°C° 0 mm 2 mps 751 mmHg 72%
10:00 +31°C° 0 mm 2 mps 750 mmHg 65%
11:00 +32°C° 0 mm 2 mps 750 mmHg 58%
12:00 +35°C° 0 mm 2 mps 750 mmHg 50%
13:00 +35°C° 0 mm 2 mps 749 mmHg 48%
14:00 +35°C° 0 mm 2 mps 748 mmHg 45%
15:00 +35°C° 0 mm 1 mps 748 mmHg 43%
16:00 +33°C° 0 mm 1 mps 748 mmHg 47%
17:00 +32°C° 0 mm 1 mps 748 mmHg 51%
18:00 +31°C° 0 mm 1 mps 748 mmHg 55%
19:00 +30°C° 0 mm 1 mps 749 mmHg 59%
20:00 +29°C° 0 mm 2 mps 749 mmHg 62%
21:00 +29°C° 0 mm 2 mps 749 mmHg 66%
22:00 +28°C° 0 mm 2 mps 750 mmHg 70%
23:00 +28°C° 0 mm 1 mps 750 mmHg 75%

Mañana, 23 Octubre, Viernes

Tiempo Temperatura Precipitaciones Viento Presión Humedad
00:00 +28°C° 0 mm 1 mps 750 mmHg 79%
01:00 +27°C° 0 mm 2 mps 749 mmHg 81%
02:00 +27°C° 0 mm 2 mps 749 mmHg 83%
03:00 +27°C° 0 mm 2 mps 749 mmHg 85%
04:00 +26°C° 0 mm 1 mps 748 mmHg 86%
05:00 +26°C° 0 mm 1 mps 748 mmHg 87%
06:00 +26°C° 0 mm 1 mps 748 mmHg 88%
07:00 +27°C° 0 mm 1 mps 749 mmHg 83%
08:00 +28°C° 0 mm 2 mps 750 mmHg 77%
09:00 +29°C° 0 mm 2 mps 751 mmHg 72%
10:00 +30°C° 0 mm 2 mps 750 mmHg 67%
11:00 +32°C° 0 mm 2 mps 750 mmHg 62%
12:00 +34°C° 0 mm 2 mps 749 mmHg 57%
13:00 +34°C° 0.1 mm 2 mps 749 mmHg 56%
14:00 +34°C° 0.1 mm 2 mps 748 mmHg 56%
15:00 +34°C° 0.1 mm 2 mps 748 mmHg 55%
16:00 +32°C° 0 mm 2 mps 748 mmHg 58%
17:00 +31°C° 0 mm 1 mps 748 mmHg 61%
18:00 +30°C° 0 mm 1 mps 748 mmHg 65%
19:00 +30°C° 0 mm 1 mps 748 mmHg 66%
20:00 +29°C° 0 mm 1 mps 749 mmHg 67%
21:00 +29°C° 0 mm 1 mps 750 mmHg 68%
22:00 +28°C° 0 mm 1 mps 749 mmHg 69%
23:00 +28°C° 0 mm 1 mps 749 mmHg 70%

Pasado mañana, 24 Octubre, Sábado

Tiempo Temperatura Precipitaciones Viento Presión Humedad
00:00 +28°C° 0 mm 1 mps 749 mmHg 71%
01:00 +27°C° 0 mm 1 mps 749 mmHg 74%
02:00 +27°C° 0 mm 1 mps 749 mmHg 77%
03:00 +26°C° 0 mm 1 mps 749 mmHg 79%
04:00 +26°C° 0 mm 1 mps 749 mmHg 81%
05:00 +26°C° 0 mm 1 mps 749 mmHg 82%
06:00 +26°C° 0 mm 1 mps 749 mmHg 84%
07:00 +27°C° 0 mm 1 mps 750 mmHg 80%
08:00 +28°C° 0 mm 1 mps 750 mmHg 75%
09:00 +29°C° 0 mm 1 mps 751 mmHg 71%
10:00 +31°C° 0 mm 1 mps 751 mmHg 64%
11:00 +32°C° 0 mm 2 mps 751 mmHg 57%
12:00 +34°C° 0 mm 2 mps 750 mmHg 50%
13:00 +35°C° 0 mm 2 mps 750 mmHg 48%
14:00 +35°C° 0 mm 2 mps 749 mmHg 46%
15:00 +35°C° 0 mm 2 mps 749 mmHg 44%
16:00 +34°C° 0 mm 2 mps 749 mmHg 47%
17:00 +32°C° 0 mm 2 mps 749 mmHg 50%
18:00 +31°C° 0 mm 1 mps 750 mmHg 53%
19:00 +30°C° 0 mm 1 mps 750 mmHg 56%
20:00 +29°C° 0 mm 1 mps 751 mmHg 59%
21:00 +28°C° 0 mm 1 mps 751 mmHg 62%
22:00 +28°C° 0 mm 1 mps 752 mmHg 64%
23:00 +28°C° 0 mm 1 mps 752 mmHg 66%

, 25 Octubre, Domingo

Tiempo Temperatura Precipitaciones Viento Presión Humedad
00:00 +27°C° 0 mm 1 mps 752 mmHg 68%
01:00 +27°C° 0 mm 1 mps 752 mmHg 70%
02:00 +26°C° 0 mm 1 mps 752 mmHg 72%
03:00 +26°C° 0 mm 1 mps 752 mmHg 74%
04:00 +26°C° 0 mm 1 mps 752 mmHg 77%
05:00 +25°C° 0 mm 1 mps 752 mmHg 79%
06:00 +25°C° 0 mm 1 mps 752 mmHg 81%
07:00 +26°C° 0 mm 1 mps 753 mmHg 78%
08:00 +28°C° 0 mm 1 mps 753 mmHg 74%
09:00 +29°C° 0 mm 2 mps 754 mmHg 71%
10:00 +30°C° 0 mm 1 mps 754 mmHg 65%
11:00 +31°C° 0 mm 1 mps 753 mmHg 60%
12:00 +32°C° 0 mm 1 mps 753 mmHg 55%
13:00 +33°C° 0 mm 1 mps 753 mmHg 51%
14:00 +34°C° 0 mm 1 mps 752 mmHg 47%
15:00 +34°C° 0 mm 1 mps 751 mmHg 42%
16:00 +33°C° 0 mm 1 mps 751 mmHg 46%
17:00 +32°C° 0 mm 1 mps 751 mmHg 49%
18:00 +30°C° 0 mm 1 mps 751 mmHg 53%
19:00 +30°C° 0 mm 1 mps 751 mmHg 55%
20:00 +29°C° 0 mm 1 mps 752 mmHg 56%
21:00 +28°C° 0 mm 2 mps 752 mmHg 58%
22:00 +28°C° 0 mm 2 mps 752 mmHg 59%
23:00 +27°C° 0 mm 2 mps 752 mmHg 60%

25 Octubre, Domingo

Tiempo Temperatura Precipitaciones Viento Presión Humedad
00:00 +27°C° 0 mm 1 mps 752 mmHg 68%
01:00 +27°C° 0 mm 1 mps 752 mmHg 70%
02:00 +26°C° 0 mm 1 mps 752 mmHg 72%
03:00 +26°C° 0 mm 1 mps 752 mmHg 74%
04:00 +26°C° 0 mm 1 mps 752 mmHg 77%
05:00 +25°C° 0 mm 1 mps 752 mmHg 79%
06:00 +25°C° 0 mm 1 mps 752 mmHg 81%
07:00 +26°C° 0 mm 1 mps 753 mmHg 78%
08:00 +28°C° 0 mm 1 mps 753 mmHg 74%
09:00 +29°C° 0 mm 2 mps 754 mmHg 71%
10:00 +30°C° 0 mm 1 mps 754 mmHg 65%
11:00 +31°C° 0 mm 1 mps 753 mmHg 60%
12:00 +32°C° 0 mm 1 mps 753 mmHg 55%
13:00 +33°C° 0 mm 1 mps 753 mmHg 51%
14:00 +34°C° 0 mm 1 mps 752 mmHg 47%
15:00 +34°C° 0 mm 1 mps 751 mmHg 42%
16:00 +33°C° 0 mm 1 mps 751 mmHg 46%
17:00 +32°C° 0 mm 1 mps 751 mmHg 49%
18:00 +30°C° 0 mm 1 mps 751 mmHg 53%
19:00 +30°C° 0 mm 1 mps 751 mmHg 55%
20:00 +29°C° 0 mm 1 mps 752 mmHg 56%
21:00 +28°C° 0 mm 2 mps 752 mmHg 58%
22:00 +28°C° 0 mm 2 mps 752 mmHg 59%
23:00 +27°C° 0 mm 2 mps 752 mmHg 60%

26 Octubre, Lunes

Tiempo Temperatura Precipitaciones Viento Presión Humedad
00:00 +27°C° 0 mm 2 mps 752 mmHg 61%
01:00 +26°C° 0 mm 2 mps 752 mmHg 62%
02:00 +26°C° 0 mm 2 mps 752 mmHg 62%
03:00 +26°C° 0 mm 2 mps 752 mmHg 63%
04:00 +25°C° 0 mm 2 mps 752 mmHg 63%
05:00 +25°C° 0 mm 2 mps 752 mmHg 64%
06:00 +24°C° 0 mm 2 mps 752 mmHg 64%
07:00 +26°C° 0 mm 2 mps 753 mmHg 61%
08:00 +27°C° 0 mm 2 mps 754 mmHg 57%
09:00 +29°C° 0 mm 2 mps 754 mmHg 53%
10:00 +30°C° 0 mm 2 mps 754 mmHg 48%
11:00 +31°C° 0 mm 2 mps 753 mmHg 44%
12:00 +34°C° 0 mm 3 mps 753 mmHg 39%
13:00 +34°C° 0 mm 3 mps 752 mmHg 36%
14:00 +35°C° 0 mm 3 mps 752 mmHg 34%
15:00 +35°C° 0 mm 3 mps 751 mmHg 31%
16:00 +33°C° 0 mm 3 mps 751 mmHg 34%
17:00 +30°C° 0 mm 2 mps 751 mmHg 38%
18:00 +28°C° 0 mm 2 mps 751 mmHg 41%
19:00 +28°C° 0 mm 2 mps 751 mmHg 43%
20:00 +27°C° 0 mm 2 mps 752 mmHg 45%
21:00 +26°C° 0 mm 2 mps 752 mmHg 47%
22:00 +26°C° 0 mm 2 mps 752 mmHg 48%
23:00 +25°C° 0 mm 2 mps 752 mmHg 49%

27 Octubre, Martes

Tiempo Temperatura Precipitaciones Viento Presión Humedad
00:00 +25°C° 0 mm 2 mps 752 mmHg 50%
01:00 +24°C° 0 mm 1 mps 752 mmHg 50%
02:00 +24°C° 0 mm 1 mps 752 mmHg 51%
03:00 +24°C° 0 mm 1 mps 752 mmHg 52%
04:00 +23°C° 0 mm 1 mps 752 mmHg 53%
05:00 +23°C° 0 mm 1 mps 752 mmHg 54%
06:00 +23°C° 0 mm 1 mps 752 mmHg 56%
07:00 +24°C° 0 mm 1 mps 753 mmHg 52%
08:00 +26°C° 0 mm 1 mps 754 mmHg 49%
09:00 +28°C° 0 mm 1 mps 754 mmHg 46%
10:00 +29°C° 0 mm 2 mps 754 mmHg 42%
11:00 +31°C° 0 mm 2 mps 754 mmHg 38%
12:00 +32°C° 0 mm 2 mps 754 mmHg 33%
13:00 +34°C° 0 mm 2 mps 753 mmHg 32%
14:00 +34°C° 0 mm 2 mps 752 mmHg 31%
15:00 +34°C° 0 mm 2 mps 752 mmHg 30%
16:00 +32°C° 0 mm 2 mps 752 mmHg 34%
17:00 +30°C° 0 mm 2 mps 752 mmHg 39%
18:00 +28°C° 0 mm 2 mps 752 mmHg 43%
19:00 +27°C° 0 mm 2 mps 752 mmHg 44%
20:00 +27°C° 0 mm 2 mps 753 mmHg 45%
21:00 +26°C° 0 mm 2 mps 753 mmHg 46%
22:00 +25°C° 0 mm 1 mps 753 mmHg 48%
23:00 +25°C° 0 mm 1 mps 753 mmHg 50%
Mostrar más

Necesitamos Su Consentimiento

Meteoprog y nuestros Proveedores de Servicios pueden almacenar y acceder a sus datos personales como cookies, identificadores de dispositivo u otras tecnologías similares de su dispositivo y procesar dichos datos para personalizar contenido y anuncios, además de ofrecer funciones de redes sociales y analizar el tráfico.

  • Almacenar y/o acceder a información en su dispositivo

    Se puede almacenar o acceder a cookies, identificadores de dispositivo u otra información de su dispositivo para los fines anteriormente indicados.

  • Anuncios y contenido personalizados, medición de anuncios y contenido, percepciones del público, y desarrollo de productos

    Los anuncios y el contenido pueden personalizarse en base a su perfil. Se pueden añadir más datos para personalizar mejor los anuncios y contenidos. Se puede medir el rendimiento de los anuncios y contenidos. Se puede obtener la percepción sobre el público que ha visto los anuncios y contenidos. Dichos datos pueden usarse para desarrollar o mejorar la experiencia del usuario, sistemas y software.

Al hacer clic en ‘Estoy De Acuerdo’ usted permitirá el uso de las cookies, identificadores de dispositivo, balizas web u otras tecnologías similares indicadas. Su configuración puede cambiarse desde el navegador de su dispositivo.

Para ciertos fines, los intereses legítimos pueden ser considerados por encima del consentimiento. Puede leer más sobre ello en nuestra Política de Privacidad y Cookies.